TimeMST,TemperatureF,Dew PointF,Humidity,Sea Level PressureIn,VisibilityMPH,Wind Direction,Wind SpeedMPH,Gust SpeedMPH,PrecipitationIn,Events,Conditions,WindDirDegrees,DateUTC
12:53 AM,32.0,28.0,85,30.34,10.0,Calm,Calm,-,N/A,,Clear,0,2012-11-20 07:53:00
1:53 AM,30.9,28.0,89,30.35,10.0,Calm,Calm,-,N/A,,Clear,0,2012-11-20 08:53:00
2:53 AM,30.0,27.0,88,30.35,10.0,Calm,Calm,-,N/A,,Clear,0,2012-11-20 09:53:00
3:53 AM,30.0,27.0,88,30.35,10.0,Calm,Calm,-,N/A,,Clear,0,2012-11-20 10:53:00
4:53 AM,28.9,26.1,89,30.36,10.0,Calm,Calm,-,N/A,,Clear,0,2012-11-20 11:53:00
5:53 AM,28.0,25.0,88,30.40,10.0,SSW,3.5,-,N/A,,Clear,210,2012-11-20 12:53:00
6:53 AM,28.0,25.0,88,30.41,10.0,SW,4.6,-,N/A,,Clear,220,2012-11-20 13:53:00
7:53 AM,30.0,27.0,88,30.44,10.0,South,3.5,-,N/A,,Clear,180,2012-11-20 14:53:00
8:53 AM,33.1,28.9,85,30.43,10.0,Calm,Calm,-,N/A,,Clear,0,2012-11-20 15:53:00
9:53 AM,39.0,28.9,67,30.40,10.0,Calm,Calm,-,N/A,,Clear,0,2012-11-20 16:53:00
10:53 AM,43.0,28.9,58,30.37,10.0,Calm,Calm,-,N/A,,Clear,0,2012-11-20 17:53:00
11:53 AM,48.0,30.0,50,30.32,10.0,Calm,Calm,-,N/A,,Clear,0,2012-11-20 18:53:00
12:53 PM,50.0,28.9,44,30.27,10.0,Calm,Calm,-,N/A,,Clear,0,2012-11-20 19:53:00
1:53 PM,54.0,24.1,31,30.23,10.0,Calm,Calm,-,N/A,,Clear,0,2012-11-20 20:53:00
2:53 PM,55.0,21.9,28,30.20,10.0,NW,3.5,-,N/A,,Clear,310,2012-11-20 21:53:00
3:53 PM,55.9,24.1,29,30.19,10.0,West,3.5,-,N/A,,Clear,280,2012-11-20 22:53:00
4:53 PM,48.0,28.0,46,30.21,10.0,SSW,4.6,-,N/A,,Clear,200,2012-11-20 23:53:00
5:53 PM,42.1,30.0,62,30.25,10.0,SSE,4.6,-,N/A,,Clear,150,2012-11-21 00:53:00
6:53 PM,39.0,28.9,67,30.27,10.0,Calm,Calm,-,N/A,,Clear,0,2012-11-21 01:53:00
7:53 PM,35.1,28.0,76,30.30,10.0,Calm,Calm,-,N/A,,Clear,0,2012-11-21 02:53:00
8:53 PM,35.1,28.0,76,30.29,10.0,Calm,Calm,-,N/A,,Clear,0,2012-11-21 03:53:00
9:53 PM,33.1,27.0,78,30.27,10.0,Calm,Calm,-,N/A,,Clear,0,2012-11-21 04:53:00
10:53 PM,32.0,26.1,79,30.25,10.0,Calm,Calm,-,N/A,,Clear,0,2012-11-21 05:53:00
11:53 PM,32.0,26.1,79,30.23,10.0,SSW,3.5,-,N/A,,Clear,210,2012-11-21 06:53:00